SCP
0 0 0 0 0 0 0 0 0 0 0 0 0 0 0 0 0 0 0 0 0 0 0 0 0 0 0 0 0 0 0 0 0 0 0 0 0 0 0 0 0 0 0
0 0 0 0 0 0 0 0 0 0 0 0 0 0 0 0 0 0 0 0 0 0 0 0 0 0 0 0 0 0 0 0 0 0 0 0 0 0 0 0 0 0 0
0 0 0 0 0 0 0 0 0 0 0 0 0 0 0 0 0 0 0 0 0 0 0 0 0 0 0 0 0 0 0 0 0 0 0 0 0 0 0 0 0 0 0
0 0 0 0 0 0 0 0 0 0 0 0 0 0 0 0 0 0 0 0 0 0 0 0 0 0 0 0 0 0 0 0 0 0 0 0 0 0 0 0 0 0 0
0 0 0 0 0 0 0 0 0 0 0 0 0 0 0 0 0 0 0 0 0 0 0 0 0 0 0 0 0 0 0 0 0 0 0 0 0 0 0 0 0 0 0
0 0 0 0 0 0 0 0 0 0 0 0 0 0 0 0 0 0 0 0 0 0 0 0 0 0 0 0 0 0 0 0 0 0 0 0 0 0 0 0 0 0 0
0 0 0 0 0 0 0 0 0 0 0 0 0 0 0 0 0 0 0 0 0 0 0 0 0 0 0 0 0 0 0 0 0 0 0 0 0 0 0 0 0 0 0
0 0 0 0 0 0 0 0 0 0 0 0 0 0 0 0 0 0 0 0 0 0 0 0 0 0 0 0 0 0 0 0 0 0 0 0 0 0 0 0 0 0 0
0 0 0 0 0 0 0 0 0 0 0 0 0 0 0 0 0 0 0 0 0 0 0 0 0 0 0 0 0 0 0 0 0 0 0 0 0 0 0 0 0 0 0
0 0 0 0 0 0 0 0 0 0 0 0 0 0 0 0 0 0 0 0 0 0 0 0 0 0 0 0 0 0 0 0 0 0 0 0 0 0 0 0 0 0 0
0 0 0 0 0 0 0 0 0 0 0 0 0 0 0 0 0 0 0 0 0 0 0 0 0 0 0 0 0 0 0 0 0 0 0 0 0 0 0 0 0 0 0
0 0 0 0 0 0 0 0 0 0 0 0 0 0 0 0 0 0 0 0 0 0 0 0 0 0 0 0 0 0 0 0 0 0 0 0 0 0 0 0 0 0 0
0 0 0 0 0 0 0 0 0 0 0 0 0 0 0 0 0 0 0 0 0 0 0 0 0 0 0 0 0 0 0 0 0 0 0 0 0 0 0 0 0 0 0
0 0 0 0 0 0 0 0 0 0 0 0 0 0 0 0 0 0 0 0 0 0 0 0 0 0 0 0 0 0 0 0 0 0 0 0 0 0 0 0 0 0 0
0 0 0 0 0 0 0 0 0 0 0 0 0 0 0 0 0 0 0 0 0 0 0 0 0 0 0 0 0 0 0 0 0 0 0 0 0 0 0 0 0 0 0
0 0 0 0 0 0 0 0 0 0 0 0 0 0 0 0 0 0 0 0 0 0 0 0 0 0 0 0 0 0 0 0 0 0 0 0 0 0 0 0 0 0 0
0 0 0 0 0 0 0 0 0 0 0 0 0 0 -0 0 0 0 0 0 0 0 0 0 0 0 0 0 0 0 0 0 0 0 0 0 0 0 0 0 0 0 0
0 0 0 0 0 0 0 0 0 0 0 0 0 0 0 0 0 0 0 0 0 0 0 0 0 0 0 0 0 0 0 0 0 0 0 0 0 0 0 0 0 0 0
0 0 0 0 0 0 0 0 0 0 0 0 0 0 0 0 0 0 0 0 0 0 0 0 0 0 0 0 0 0 0 0 0 0 0 0 0 0 0 0 0 0 0
0 0 0 0 0 0 0 0 0 0 0 0 0 0 0 0 0 0 0 0 0 0 0 0 0 0 0 0 0 0 0 0 0 0 0 0 0 0 0 0 0 0 0
0 0 0 0 0 0 0 0 0 0 0 0 0 0 0 0 0 0 0 0 0 0 0 0 0 0 0 0 0 0 0 0 0 0 0 0 0 0 0 0 0 0 0
0 0 0 0 0 0 0 0 0 0 0 0 0 0 0 0 0 0 0 0 0 0 0 0 0 0 0 0 0 0 0 0 0 0 0 0 0 0 0 0 0 0 0
0 0 0 0 0 0 0 0 0 0 0 0 0 0 0 0 0 0 0 0 0 0 0 0 0 0 0 0 0 0 0 0 0 0 0 0 0 0 0 0 0 0 0
0 0 0 0 0 0 0 0 0 0 0 0 0 0 0 0 0 0 0 0 0 0 0 0 0 0 0 0 0 0 0 0 0 0 0 0 0 0 0 0 0 0 0
0 0 0 0 0 0 0 0 0 0 0 0 0 0 0 0 0 0 0 0 0 0 0 0 0 0 0 0 0 0 0 0 0 0 0 0 0 0 0 0 0 0 0
0 0 0 0 0 0 0 0 0 0 0 0 0 0 0 0 0 0 0 0 0 0 0 0 0 0 0 0 0 0 0 0 0 0 0 0 0 0 0 0 0 0 0
Wind_Speed_500mb
67 63 61 60 58 57 54 50 47 43 42 42 39 39 39 40 42 45 44 43 46 44 41 40 40 37 37 35 33 32 35 37 45 46 32 35 33 22 26 23 22 21 18
63 61 59 56 54 52 49 46 44 42 42 42 41 40 40 42 42 43 43 42 42 38 36 37 39 37 37 34 34 33 34 34 42 46 39 43 38 34 27 25 22 21 20
56 55 52 50 48 47 44 42 42 42 42 41 41 40 38 37 37 35 35 35 37 35 34 35 37 35 35 34 33 35 34 33 35 40 37 27 22 26 28 28 27 25 26
50 48 46 45 44 42 42 42 42 42 43 41 40 38 37 36 36 34 34 34 35 33 35 37 38 38 36 34 34 33 31 31 31 33 30 28 24 23 25 24 26 27 27
44 43 41 40 39 37 38 39 41 42 41 41 41 38 37 34 33 33 33 32 33 31 33 36 37 35 34 36 36 36 32 31 31 31 31 30 26 22 22 23 24 27 30
36 33 33 33 33 32 33 35 38 40 41 42 41 40 37 35 33 33 32 32 33 32 33 35 35 36 37 37 37 38 39 38 37 37 35 36 30 24 24 26 29 29 30
30 28 27 28 29 30 31 33 36 36 39 40 42 41 40 38 37 36 35 38 37 34 33 34 35 37 36 38 38 39 40 40 41 40 44 43 38 28 28 32 33 36 39
28 27 27 29 31 33 34 33 33 34 35 36 37 39 41 42 42 42 42 43 43 41 39 39 37 37 36 35 37 43 44 43 44 45 49 44 42 37 37 37 41 46 49
22 23 23 24 26 28 29 28 31 34 34 35 36 38 40 41 40 42 44 47 48 47 44 44 43 41 37 36 41 47 49 50 48 49 51 51 49 47 44 44 50 49 54
20 18 17 18 19 22 23 24 27 27 28 30 31 32 34 34 33 35 38 42 46 46 44 44 43 43 43 45 49 51 57 55 48 48 51 52 50 50 47 50 51 53 52
19 19 19 20 20 18 19 21 22 21 22 24 25 27 28 30 29 33 35 38 43 42 42 41 41 39 39 37 37 47 55 51 49 50 52 53 55 57 59 58 58 60 61
17 17 17 16 16 16 16 15 15 15 15 18 19 21 24 23 23 24 27 29 32 36 38 36 36 36 38 40 41 45 44 44 46 47 51 54 52 48 45 47 50 56 60
16 17 16 14 12 11 9 10 8 7 9 11 13 15 20 21 20 23 21 20 21 25 28 26 24 26 28 29 31 32 34 37 44 50 52 54 51 42 40 39 39 42 44
16 12 10 10 11 10 9 8 6 4 3 4 6 9 10 11 13 14 19 24 29 31 32 32 33 36 36 35 38 40 43 47 52 58 62 61 56 49 44 36 34 31 35
14 15 15 14 13 11 8 6 4 3 2 3 6 8 8 8 10 13 14 17 20 22 24 23 24 26 23 24 28 37 40 41 42 47 44 41 44 44 40 32 32 33 37
16 15 14 12 10 9 7 5 3 1 2 4 7 9 10 11 14 15 18 20 21 22 27 23 24 27 26 24 24 22 29 34 37 36 36 36 37 38 39 36 36 38 38
12 12 10 9 7 5 4 5 9 10 12 13 15 18 20 20 22 22 25 26 29 30 34 29 30 30 30 32 33 31 29 29 33 35 40 42 42 40 38 37 37 38 39
12 12 12 12 12 12 15 17 19 21 23 24 25 31 32 30 32 35 36 38 42 41 40 39 39 38 38 40 40 40 38 37 37 37 38 38 40 42 43 43 42 41 39
18 19 21 22 23 25 27 30 32 36 38 39 37 36 38 43 44 46 46 51 52 52 51 52 51 51 50 49 49 49 49 47 46 45 42 41 41 42 41 41 39 38 39
28 30 32 34 35 37 38 42 45 47 50 52 53 51 50 50 52 53 54 57 59 61 62 63 61 60 59 58 57 57 58 58 57 55 51 47 45 46 43 42 41 40 38
37 38 39 42 45 48 51 53 53 56 58 59 60 53 54 62 66 64 60 62 64 65 66 69 72 71 68 66 66 66 67 67 65 62 58 55 51 51 46 44 42 42 41
44 46 48 51 52 55 57 58 61 62 64 67 69 67 63 66 68 69 69 68 65 66 67 70 76 79 79 76 73 73 73 74 70 66 65 62 58 56 52 50 47 46 44
54 57 58 59 60 63 66 67 68 69 70 70 68 66 61 59 56 53 50 49 51 56 61 65 68 71 73 75 73 72 74 75 70 66 66 65 64 61 57 56 51 49 47
61 62 62 63 62 62 61 60 58 56 53 52 50 49 48 46 46 47 48 49 51 54 56 56 57 59 61 62 64 65 66 67 65 65 64 65 65 62 61 60 55 51 47
52 51 51 51 50 51 51 50 50 50 49 49 49 49 50 52 54 54 53 52 49 47 48 46 43 44 46 48 49 51 54 57 59 59 59 61 61 60 60 58 54 50 47
47 48 49 50 50 50 50 51 52 52 53 54 55 55 54 55 54 53 51 49 47 46 44 41 38 36 35 37 38 40 43 47 52 54 55 57 57 55 53 52 49 48 47
Wind_Direction_500mb
201 204 206 207 210 217 222 227 231 234 236 241 245 248 253 256 257 258 259 260 259 258 253 250 250 246 245 241 242 239 238 236 245 248 238 243 250 233 255 250 254 258 255
200 200 202 208 213 219 223 226 229 232 237 240 243 245 247 251 253 253 254 254 252 252 251 247 246 242 243 241 243 243 242 239 244 255 253 250 247 245 236 244 246 250 250
199 203 204 209 214 219 222 227 231 232 237 240 245 248 248 249 249 248 250 251 251 250 249 247 248 242 241 241 243 244 240 238 240 249 257 254 226 224 232 237 239 246 248
202 206 211 214 218 221 224 227 232 234 236 237 242 246 249 247 247 248 250 252 251 248 247 245 245 242 242 241 239 239 237 237 237 243 248 246 233 228 244 244 244 242 247
208 209 212 216 222 226 228 229 232 233 234 235 238 242 245 247 249 250 251 251 252 249 245 244 245 244 241 239 235 230 230 237 238 242 244 246 242 243 252 249 246 247 252
201 206 213 218 223 228 232 233 233 233 234 237 240 243 245 248 248 250 250 249 251 248 248 248 247 247 243 239 229 227 233 240 243 249 253 254 254 256 256 262 263 267 273
204 211 218 223 226 230 233 236 237 236 237 239 241 244 247 248 246 246 246 249 250 250 250 251 249 248 247 241 230 233 240 243 246 251 254 257 261 261 266 266 271 271 269
214 220 222 227 231 233 234 236 238 239 241 242 243 245 247 248 247 245 246 248 250 251 251 253 253 253 249 239 235 239 243 248 253 260 265 264 265 267 265 268 268 268 269
210 220 226 229 232 235 238 240 243 243 243 246 247 247 249 248 248 247 245 247 250 253 253 254 253 251 245 239 249 251 247 246 249 254 257 263 267 268 267 262 261 265 270
215 219 226 233 236 238 240 241 240 239 240 243 246 247 248 251 249 246 245 247 251 255 257 260 263 263 254 246 245 252 262 256 256 254 256 257 259 259 259 258 263 263 265
201 208 213 218 222 225 230 233 236 240 243 247 248 251 253 254 250 248 244 242 248 254 258 259 262 263 263 258 252 256 261 268 266 267 265 262 257 257 256 256 256 257 258
203 207 209 213 217 219 224 231 238 239 244 252 254 251 249 247 247 249 248 240 247 254 259 263 262 259 255 251 247 248 249 258 266 268 268 268 266 266 266 263 257 253 255
197 198 200 201 205 209 215 230 242 253 259 264 261 253 244 241 242 245 241 235 239 250 260 264 264 261 257 253 251 247 250 252 256 262 264 268 274 276 271 261 254 253 253
184 174 182 186 190 192 197 205 214 228 260 269 274 263 265 279 282 264 247 246 241 246 253 258 262 263 266 265 256 249 247 247 252 257 263 267 269 270 273 267 256 253 257
164 164 168 167 164 158 150 141 123 86 22 330 313 315 313 311 288 271 266 266 262 261 264 270 272 273 275 273 269 258 250 258 259 270 269 269 266 264 265 265 257 256 257
165 166 165 162 159 156 149 137 107 43 350 319 311 310 303 298 285 285 278 273 276 275 275 277 275 278 280 278 274 264 259 263 266 261 262 267 269 267 264 265 261 257 259
183 188 186 192 199 206 234 275 290 288 287 290 291 287 285 283 280 279 278 275 272 271 273 276 274 271 272 273 272 269 264 262 262 263 262 263 266 268 267 266 263 261 260
227 234 243 251 255 261 266 270 275 275 275 276 278 278 278 276 275 274 273 271 269 269 274 277 274 272 271 270 269 270 270 266 263 262 261 262 263 265 267 267 265 262 258
254 259 262 264 269 273 276 279 281 282 283 283 277 268 274 273 270 270 269 268 273 274 275 275 277 276 273 269 267 267 267 268 267 264 262 261 261 261 262 265 265 263 261
265 265 267 270 271 274 279 279 279 281 281 281 281 284 282 275 269 267 266 268 269 272 274 275 275 273 273 271 269 267 265 263 263 265 265 263 261 261 261 260 261 264 264
270 271 272 273 277 279 279 280 281 280 282 282 282 282 281 281 281 278 274 271 273 273 272 272 272 271 268 266 265 264 264 263 261 261 260 260 258 258 259 258 256 256 258
277 277 278 279 281 282 284 283 283 283 282 283 284 283 282 279 280 282 283 284 283 281 280 277 273 270 268 265 263 261 260 260 259 258 257 256 256 256 255 254 253 253 253
277 278 280 281 282 281 280 281 281 282 283 284 285 285 284 281 280 280 283 287 290 291 289 284 279 274 269 266 263 259 258 258 259 257 254 252 251 250 250 251 251 250 252
280 281 281 281 280 280 281 282 282 283 285 286 287 287 287 286 284 284 287 293 299 300 297 291 284 279 274 268 263 259 257 256 255 252 250 248 248 247 246 247 247 249 250
283 283 281 281 281 281 282 283 283 283 284 284 287 288 288 288 288 288 288 287 289 295 298 298 293 284 276 271 267 261 256 254 254 252 249 246 245 245 245 246 246 247 246
284 283 282 281 281 281 281 282 284 284 285 286 286 286 286 286 286 285 284 283 283 285 289 292 294 290 282 275 268 264 259 255 253 252 249 246 244 242 243 245 246 245 244
Wind_Speed_850mb
67 63 61 60 58 57 54 50 47 43 42 42 39 39 39 40 42 45 44 43 46 44 41 40 40 37 37 35 33 32 35 37 45 46 32 35 33 22 26 23 22 21 18
63 61 59 56 54 52 49 46 44 42 42 42 41 40 40 42 42 43 43 42 42 38 36 37 39 37 37 34 34 33 34 34 42 46 39 43 38 34 27 25 22 21 20
56 55 52 50 48 47 44 42 42 42 42 41 41 40 38 37 37 35 35 35 37 35 34 35 37 35 35 34 33 35 34 33 35 40 37 27 22 26 28 28 27 25 26
50 48 46 45 44 42 42 42 42 42 43 41 40 38 37 36 36 34 34 34 35 33 35 37 38 38 36 34 34 33 31 31 31 33 30 28 24 23 25 24 26 27 27
44 43 41 40 39 37 38 39 41 42 41 41 41 38 37 34 33 33 33 32 33 31 33 36 37 35 34 36 36 36 32 31 31 31 31 30 26 22 22 23 24 27 30
36 33 33 33 33 32 33 35 38 40 41 42 41 40 37 35 33 33 32 32 33 32 33 35 35 36 37 37 37 38 39 38 37 37 35 36 30 24 24 26 29 29 30
30 28 27 28 29 30 31 33 36 36 39 40 42 41 40 38 37 36 35 38 37 34 33 34 35 37 36 38 38 39 40 40 41 40 44 43 38 28 28 32 33 36 39
28 27 27 29 31 33 34 33 33 34 35 36 37 39 41 42 42 42 42 43 43 41 39 39 37 37 36 35 37 43 44 43 44 45 49 44 42 37 37 37 41 46 49
22 23 23 24 26 28 29 28 31 34 34 35 36 38 40 41 40 42 44 47 48 47 44 44 43 41 37 36 41 47 49 50 48 49 51 51 49 47 44 44 50 49 54
20 18 17 18 19 22 23 24 27 27 28 30 31 32 34 34 33 35 38 42 46 46 44 44 43 43 43 45 49 51 57 55 48 48 51 52 50 50 47 50 51 53 52
19 19 19 20 20 18 19 21 22 21 22 24 25 27 28 30 29 33 35 38 43 42 42 41 41 39 39 37 37 47 55 51 49 50 52 53 55 57 59 58 58 60 61
17 17 17 16 16 16 16 15 15 15 15 18 19 21 24 23 23 24 27 29 32 36 38 36 36 36 38 40 41 45 44 44 46 47 51 54 52 48 45 47 50 56 60
16 17 16 14 12 11 9 10 8 7 9 11 13 15 20 21 20 23 21 20 21 25 28 26 24 26 28 29 31 32 34 37 44 50 52 54 51 42 40 39 39 42 44
16 12 10 10 11 10 9 8 6 4 3 4 6 9 10 11 13 14 19 24 29 31 32 32 33 36 36 35 38 40 43 47 52 58 62 61 56 49 44 36 34 31 35
14 15 15 14 13 11 8 6 4 3 2 3 6 8 8 8 10 13 14 17 20 22 24 23 24 26 23 24 28 37 40 41 42 47 44 41 44 44 40 32 32 33 37
16 15 14 12 10 9 7 5 3 1 2 4 7 9 10 11 14 15 18 20 21 22 27 23 24 27 26 24 24 22 29 34 37 36 36 36 37 38 39 36 36 38 38
12 12 10 9 7 5 4 5 9 10 12 13 15 18 20 20 22 22 25 26 29 30 34 29 30 30 30 32 33 31 29 29 33 35 40 42 42 40 38 37 37 38 39
12 12 12 12 12 12 15 17 19 21 23 24 25 31 32 30 32 35 36 38 42 41 40 39 39 38 38 40 40 40 38 37 37 37 38 38 40 42 43 43 42 41 39
18 19 21 22 23 25 27 30 32 36 38 39 37 36 38 43 44 46 46 51 52 52 51 52 51 51 50 49 49 49 49 47 46 45 42 41 41 42 41 41 39 38 39
28 30 32 34 35 37 38 42 45 47 50 52 53 51 50 50 52 53 54 57 59 61 62 63 61 60 59 58 57 57 58 58 57 55 51 47 45 46 43 42 41 40 38
37 38 39 42 45 48 51 53 53 56 58 59 60 53 54 62 66 64 60 62 64 65 66 69 72 71 68 66 66 66 67 67 65 62 58 55 51 51 46 44 42 42 41
44 46 48 51 52 55 57 58 61 62 64 67 69 67 63 66 68 69 69 68 65 66 67 70 76 79 79 76 73 73 73 74 70 66 65 62 58 56 52 50 47 46 44
54 57 58 59 60 63 66 67 68 69 70 70 68 66 61 59 56 53 50 49 51 56 61 65 68 71 73 75 73 72 74 75 70 66 66 65 64 61 57 56 51 49 47
61 62 62 63 62 62 61 60 58 56 53 52 50 49 48 46 46 47 48 49 51 54 56 56 57 59 61 62 64 65 66 67 65 65 64 65 65 62 61 60 55 51 47
52 51 51 51 50 51 51 50 50 50 49 49 49 49 50 52 54 54 53 52 49 47 48 46 43 44 46 48 49 51 54 57 59 59 59 61 61 60 60 58 54 50 47
47 48 49 50 50 50 50 51 52 52 53 54 55 55 54 55 54 53 51 49 47 46 44 41 38 36 35 37 38 40 43 47 52 54 55 57 57 55 53 52 49 48 47
Wind_Direction_850mb
201 204 206 207 210 217 222 227 231 234 236 241 245 248 253 256 257 258 259 260 259 258 253 250 250 246 245 241 242 239 238 236 245 248 238 243 250 233 255 250 254 258 255
200 200 202 208 213 219 223 226 229 232 237 240 243 245 247 251 253 253 254 254 252 252 251 247 246 242 243 241 243 243 242 239 244 255 253 250 247 245 236 244 246 250 250
199 203 204 209 214 219 222 227 231 232 237 240 245 248 248 249 249 248 250 251 251 250 249 247 248 242 241 241 243 244 240 238 240 249 257 254 226 224 232 237 239 246 248
202 206 211 214 218 221 224 227 232 234 236 237 242 246 249 247 247 248 250 252 251 248 247 245 245 242 242 241 239 239 237 237 237 243 248 246 233 228 244 244 244 242 247
208 209 212 216 222 226 228 229 232 233 234 235 238 242 245 247 249 250 251 251 252 249 245 244 245 244 241 239 235 230 230 237 238 242 244 246 242 243 252 249 246 247 252
201 206 213 218 223 228 232 233 233 233 234 237 240 243 245 248 248 250 250 249 251 248 248 248 247 247 243 239 229 227 233 240 243 249 253 254 254 256 256 262 263 267 273
204 211 218 223 226 230 233 236 237 236 237 239 241 244 247 248 246 246 246 249 250 250 250 251 249 248 247 241 230 233 240 243 246 251 254 257 261 261 266 266 271 271 269
214 220 222 227 231 233 234 236 238 239 241 242 243 245 247 248 247 245 246 248 250 251 251 253 253 253 249 239 235 239 243 248 253 260 265 264 265 267 265 268 268 268 269
210 220 226 229 232 235 238 240 243 243 243 246 247 247 249 248 248 247 245 247 250 253 253 254 253 251 245 239 249 251 247 246 249 254 257 263 267 268 267 262 261 265 270
215 219 226 233 236 238 240 241 240 239 240 243 246 247 248 251 249 246 245 247 251 255 257 260 263 263 254 246 245 252 262 256 256 254 256 257 259 259 259 258 263 263 265
201 208 213 218 222 225 230 233 236 240 243 247 248 251 253 254 250 248 244 242 248 254 258 259 262 263 263 258 252 256 261 268 266 267 265 262 257 257 256 256 256 257 258
203 207 209 213 217 219 224 231 238 239 244 252 254 251 249 247 247 249 248 240 247 254 259 263 262 259 255 251 247 248 249 258 266 268 268 268 266 266 266 263 257 253 255
197 198 200 201 205 209 215 230 242 253 259 264 261 253 244 241 242 245 241 235 239 250 260 264 264 261 257 253 251 247 250 252 256 262 264 268 274 276 271 261 254 253 253
184 174 182 186 190 192 197 205 214 228 260 269 274 263 265 279 282 264 247 246 241 246 253 258 262 263 266 265 256 249 247 247 252 257 263 267 269 270 273 267 256 253 257
164 164 168 167 164 158 150 141 123 86 22 330 313 315 313 311 288 271 266 266 262 261 264 270 272 273 275 273 269 258 250 258 259 270 269 269 266 264 265 265 257 256 257
165 166 165 162 159 156 149 137 107 43 350 319 311 310 303 298 285 285 278 273 276 275 275 277 275 278 280 278 274 264 259 263 266 261 262 267 269 267 264 265 261 257 259
183 188 186 192 199 206 234 275 290 288 287 290 291 287 285 283 280 279 278 275 272 271 273 276 274 271 272 273 272 269 264 262 262 263 262 263 266 268 267 266 263 261 260
227 234 243 251 255 261 266 270 275 275 275 276 278 278 278 276 275 274 273 271 269 269 274 277 274 272 271 270 269 270 270 266 263 262 261 262 263 265 267 267 265 262 258
254 259 262 264 269 273 276 279 281 282 283 283 277 268 274 273 270 270 269 268 273 274 275 275 277 276 273 269 267 267 267 268 267 264 262 261 261 261 262 265 265 263 261
265 265 267 270 271 274 279 279 279 281 281 281 281 284 282 275 269 267 266 268 269 272 274 275 275 273 273 271 269 267 265 263 263 265 265 263 261 261 261 260 261 264 264
270 271 272 273 277 279 279 280 281 280 282 282 282 282 281 281 281 278 274 271 273 273 272 272 272 271 268 266 265 264 264 263 261 261 260 260 258 258 259 258 256 256 258
277 277 278 279 281 282 284 283 283 283 282 283 284 283 282 279 280 282 283 284 283 281 280 277 273 270 268 265 263 261 260 260 259 258 257 256 256 256 255 254 253 253 253
277 278 280 281 282 281 280 281 281 282 283 284 285 285 284 281 280 280 283 287 290 291 289 284 279 274 269 266 263 259 258 258 259 257 254 252 251 250 250 251 251 250 252
280 281 281 281 280 280 281 282 282 283 285 286 287 287 287 286 284 284 287 293 299 300 297 291 284 279 274 268 263 259 257 256 255 252 250 248 248 247 246 247 247 249 250
283 283 281 281 281 281 282 283 283 283 284 284 287 288 288 288 288 288 288 287 289 295 298 298 293 284 276 271 267 261 256 254 254 252 249 246 245 245 245 246 246 247 246
284 283 282 281 281 281 281 282 284 284 285 286 286 286 286 286 286 285 284 283 283 285 289 292 294 290 282 275 268 264 259 255 253 252 249 246 244 242 243 245 246 245 244